{"data":{"norad_id":89251,"epoch":"2026-05-23T10:18:31.677984Z","epoch_age_seconds":214211,"freshness":"STALE","line1":"1 89251U          26143.42953331  .00003456  00000+0  22050-2 0  9999","line2":"2 89251  62.4720 151.2957 2803181 115.8397 275.7022  9.28579117388176","mean_motion":9.28579117,"eccentricity":0.2803181,"inclination_deg":62.472,"raan_deg":151.2957,"arg_perigee_deg":115.8397,"mean_anomaly_deg":275.7022,"bstar":0.002205,"rev_number":38817,"period_min":155.07563907449,"perigee_km":503.04661628332,"apogee_km":5863.5268981069,"semimajor_km":9561.4237571951,"source":"CELESTRAK","updated_at":"2026-05-25T13:38:11.779803Z"}}